TimeCST,TemperatureF,Dew PointF,Humidity,Sea Level PressureIn,VisibilityMPH,Wind Direction,Wind SpeedMPH,Gust SpeedMPH,PrecipitationIn,Events,Conditions,WindDirDegrees,DateUTC
12:15 AM,30.6,25.3,81,30.26,10.0,South,8.1,-,N/A,,Overcast,170,2013-03-02 06:15:00
12:35 AM,29.7,25.3,84,30.26,10.0,SSW,5.8,-,N/A,,Overcast,210,2013-03-02 06:35:00
12:55 AM,29.3,26.1,88,30.26,10.0,SSW,4.6,-,N/A,,Overcast,200,2013-03-02 06:55:00
1:15 AM,30.2,26.4,86,30.27,10.0,SSW,4.6,-,N/A,,Overcast,210,2013-03-02 07:15:00
1:35 AM,31.3,27.3,85,30.26,10.0,SSW,6.9,-,N/A,,Overcast,210,2013-03-02 07:35:00
1:55 AM,30.7,26.6,85,30.25,10.0,SSW,6.9,-,N/A,,Mostly Cloudy,210,2013-03-02 07:55:00
2:15 AM,31.5,27.5,85,30.24,10.0,SW,8.1,-,N/A,,Mostly Cloudy,230,2013-03-02 08:15:00
2:35 AM,32.0,28.2,86,30.24,10.0,WSW,8.1,-,N/A,,Overcast,240,2013-03-02 08:35:00
2:55 AM,32.0,28.4,87,30.24,10.0,WSW,9.2,-,N/A,,Overcast,250,2013-03-02 08:55:00
3:15 AM,32.2,28.8,87,30.23,10.0,SW,5.8,-,N/A,,Overcast,230,2013-03-02 09:15:00
3:35 AM,32.5,28.6,85,30.23,10.0,WSW,8.1,-,N/A,,Mostly Cloudy,240,2013-03-02 09:35:00
3:55 AM,31.1,27.5,87,30.22,10.0,WSW,5.8,-,N/A,,Scattered Clouds,240,2013-03-02 09:55:00
4:15 AM,32.0,28.9,88,30.22,10.0,WSW,8.1,-,N/A,,Mostly Cloudy,240,2013-03-02 10:15:00
4:35 AM,32.0,28.6,87,30.22,10.0,WSW,8.1,-,N/A,,Mostly Cloudy,240,2013-03-02 10:35:00
4:55 AM,32.2,29.3,89,30.21,10.0,WSW,6.9,-,N/A,,Mostly Cloudy,240,2013-03-02 10:55:00
5:15 AM,34.7,30.2,84,30.21,10.0,WSW,5.8,-,N/A,,Overcast,240,2013-03-02 11:15:00
5:35 AM,36.3,30.9,81,30.21,10.0,WSW,10.4,-,N/A,,Overcast,250,2013-03-02 11:35:00
5:55 AM,37.4,30.7,77,30.21,10.0,WSW,10.4,-,N/A,,Overcast,250,2013-03-02 11:55:00
6:15 AM,36.7,30.7,79,30.21,10.0,WSW,9.2,-,N/A,,Overcast,250,2013-03-02 12:15:00
6:35 AM,37.2,30.7,77,30.21,10.0,WSW,10.4,-,N/A,,Overcast,250,2013-03-02 12:35:00
6:55 AM,36.9,30.2,77,30.21,10.0,SW,8.1,-,N/A,,Overcast,230,2013-03-02 12:55:00
7:15 AM,36.5,30.2,78,30.21,10.0,WSW,6.9,-,N/A,,Overcast,240,2013-03-02 13:15:00
7:35 AM,35.6,29.7,79,30.21,10.0,WSW,9.2,-,N/A,,Mostly Cloudy,240,2013-03-02 13:35:00
7:55 AM,36.9,30.0,76,30.21,10.0,WSW,9.2,-,N/A,,Scattered Clouds,250,2013-03-02 13:55:00
8:15 AM,38.5,30.2,72,30.22,10.0,WSW,8.1,-,N/A,,Scattered Clouds,250,2013-03-02 14:15:00
8:35 AM,40.3,31.1,70,30.22,10.0,West,6.9,-,N/A,,Clear,270,2013-03-02 14:35:00
8:55 AM,44.6,30.9,59,30.22,10.0,WNW,12.7,18.4,N/A,,Clear,300,2013-03-02 14:55:00
9:15 AM,47.8,30.7,52,30.22,10.0,WNW,13.8,18.4,N/A,,Clear,300,2013-03-02 15:15:00
9:35 AM,48.2,29.7,49,30.22,10.0,WNW,12.7,20.7,N/A,,Clear,300,2013-03-02 15:35:00
9:55 AM,50.2,29.8,46,30.22,10.0,WNW,15.0,-,N/A,,Clear,290,2013-03-02 15:55:00
10:15 AM,50.7,29.8,45,30.22,10.0,WNW,12.7,-,N/A,,Clear,300,2013-03-02 16:15:00
10:35 AM,51.8,29.7,43,30.22,10.0,WNW,15.0,20.7,N/A,,Clear,300,2013-03-02 16:35:00
10:55 AM,53.4,29.1,39,30.21,10.0,NW,15.0,21.9,N/A,,Clear,310,2013-03-02 16:55:00
11:15 AM,54.5,28.6,37,30.21,10.0,NW,15.0,-,N/A,,Clear,320,2013-03-02 17:15:00
11:35 AM,56.7,27.7,33,30.21,10.0,NNW,13.8,-,N/A,,Clear,330,2013-03-02 17:35:00
11:55 AM,57.9,27.0,31,30.21,10.0,NW,15.0,-,N/A,,Clear,320,2013-03-02 17:55:00
12:35 PM,59.2,27.9,30,30.20,10.0,WNW,15.0,21.9,N/A,,Clear,300,2013-03-02 18:35:00
12:55 PM,61.5,27.5,28,30.20,10.0,NW,12.7,-,N/A,,Clear,320,2013-03-02 18:55:00
1:15 PM,61.0,25.3,26,30.19,10.0,NW,17.3,21.9,N/A,,Clear,320,2013-03-02 19:15:00
1:35 PM,61.0,25.7,26,30.18,10.0,North,17.3,23.0,N/A,,Clear,350,2013-03-02 19:35:00
1:55 PM,62.1,26.1,25,30.17,10.0,NNW,15.0,20.7,N/A,,Clear,330,2013-03-02 19:55:00
2:15 PM,62.1,26.1,25,30.16,10.0,NNW,19.6,38.0,N/A,,Clear,340,2013-03-02 20:15:00
2:35 PM,62.1,25.3,25,30.15,10.0,NNW,13.8,20.7,N/A,,Clear,330,2013-03-02 20:35:00
2:55 PM,63.1,25.9,24,30.15,10.0,NW,12.7,-,N/A,,Clear,320,2013-03-02 20:55:00
3:15 PM,63.0,26.1,25,30.14,10.0,NNW,15.0,18.4,N/A,,Clear,330,2013-03-02 21:15:00
3:55 PM,63.0,24.3,23,30.12,10.0,WNW,15.0,20.7,N/A,,Clear,290,2013-03-02 21:55:00
4:15 PM,63.1,24.3,23,30.12,10.0,NW,11.5,18.4,N/A,,Clear,320,2013-03-02 22:15:00
4:35 PM,62.4,23.7,23,30.11,10.0,WNW,12.7,20.7,N/A,,Clear,300,2013-03-02 22:35:00
4:55 PM,62.6,24.1,23,30.12,10.0,NW,13.8,17.3,N/A,,Clear,310,2013-03-02 22:55:00
5:15 PM,62.1,24.4,24,30.10,10.0,NW,11.5,-,N/A,,Clear,320,2013-03-02 23:15:00
5:35 PM,60.8,24.8,25,30.10,10.0,NNW,9.2,-,N/A,,Clear,330,2013-03-02 23:35:00
5:55 PM,59.7,25.3,27,30.10,10.0,NW,6.9,-,N/A,,Clear,320,2013-03-02 23:55:00
6:15 PM,57.4,26.4,31,30.10,10.0,NW,5.8,-,N/A,,Clear,320,2013-03-03 00:15:00
6:35 PM,55.2,28.0,35,30.10,10.0,NW,3.5,-,N/A,,Clear,310,2013-03-03 00:35:00
6:55 PM,54.7,30.0,39,30.09,10.0,Calm,Calm,-,N/A,,Clear,0,2013-03-03 00:55:00
7:15 PM,54.3,30.0,39,30.09,10.0,Calm,Calm,-,N/A,,Clear,0,2013-03-03 01:15:00
7:35 PM,49.6,30.7,48,30.09,10.0,SW,5.8,-,N/A,,Clear,230,2013-03-03 01:35:00
7:55 PM,46.4,30.9,55,30.09,10.0,SW,6.9,-,N/A,,Clear,230,2013-03-03 01:55:00
8:15 PM,44.6,31.1,59,30.10,10.0,WSW,6.9,-,N/A,,Clear,240,2013-03-03 02:15:00
8:35 PM,43.7,31.8,63,30.10,10.0,SW,6.9,-,N/A,,Clear,230,2013-03-03 02:35:00
8:55 PM,41.7,31.8,68,30.09,10.0,WSW,6.9,-,N/A,,Clear,240,2013-03-03 02:55:00
9:15 PM,41.4,31.5,68,30.09,10.0,WSW,8.1,-,N/A,,Clear,240,2013-03-03 03:15:00
9:35 PM,39.2,30.9,72,30.09,10.0,SW,6.9,-,N/A,,Clear,230,2013-03-03 03:35:00
9:55 PM,41.4,31.1,67,30.10,10.0,WSW,8.1,-,N/A,,Clear,250,2013-03-03 03:55:00
10:15 PM,41.0,31.1,68,30.09,10.0,SW,8.1,-,N/A,,Clear,230,2013-03-03 04:15:00
10:35 PM,39.6,30.7,71,30.08,10.0,SW,6.9,-,N/A,,Clear,230,2013-03-03 04:35:00
10:55 PM,39.4,30.2,70,30.08,10.0,SW,8.1,-,N/A,,Clear,220,2013-03-03 04:55:00
11:15 PM,39.2,30.0,70,30.07,10.0,SW,8.1,-,N/A,,Clear,230,2013-03-03 05:15:00
11:35 PM,38.1,29.5,71,30.07,10.0,WSW,8.1,-,N/A,,Clear,240,2013-03-03 05:35:00
11:55 PM,37.6,29.3,72,30.06,10.0,WSW,9.2,-,N/A,,Clear,240,2013-03-03 05:55:00